This demonstration page uses our WeatherBlox Daily Observations layout. Learn more.

Left ArrowRight Arrow

39.01783, -85.05884

Hourly Observations for March 14, 2020

Temp ( °F °C ) Dew Point ( °F °C ) Humidity (%) Winds ( mph kmh ) Pressure ( in mb ) Visibility ( mi km ) Precip ( " mm )
12:52 am 00:52 Cloudy 40 4.4 26 -3.3 58 58 W 3 6 30.40 1030 10 16 0.00 0.00
1:52 am 01:52 Cloudy 40 4.4 26 -3.3 58 58 WNW 5 7 30.40 1030 10 16 0.00 0.00
2:52 am 02:52 Cloudy 38 3.3 27 -2.8 65 65 NW 3 6 30.42 1030 10 16 0.00 0.00
3:52 am 03:52 Cloudy 37 2.8 29 -1.7 73 73 Calm 30.41 1030 10 16 0.00 0.00
4:52 am 04:52 Cloudy 41 5 28 -2.2 60 60 NE 5 7 30.39 1029 10 16 0.00 0.00
5:52 am 05:52 Cloudy 42 5.6 26 -3.3 53 53 E 5 7 30.40 1029 10 16 0.00 0.00
6:52 am 06:52 Cloudy 42 5.6 27 -2.8 55 55 E 8 13 30.40 1029 10 16 0.00 0.00
7:52 am 07:52 Cloudy 42 5.6 27 -2.8 55 55 ENE 8 13 30.39 1029 10 16 0.00 0.00
8:52 am 08:52 Cloudy 42 5.6 26 -3.3 53 53 E 6 9 30.42 1030 10 16 0.00 0.00
9:52 am 09:52 Cloudy 43 6.1 25 -3.9 49 49 ENE 12 19 30.42 1030 10 16 0.00 0.00
10:52 am 10:52 Cloudy 43 6.1 22 -5.6 43 43 E 16 26 30.40 1029 10 16 0.00 0.00
11:52 am 11:52 Cloudy with Light Rain 43 6.1 25 -3.9 49 49 ENE 9 15 30.44 1031 9 14 0.01 0.25
12:52 pm 12:52 Cloudy with Light Rain 42 5.6 28 -2.2 58 58 ENE 10 17 30.43 1030 9 14 0.00 0.00
1:52 pm 13:52 Cloudy with Light Rain 40 4.4 31 -0.6 70 70 E 7 11 30.42 1030 5 8 0.10 2.54
2:52 pm 14:52 Cloudy with Light Rain 39 3.9 33 0.6 79 79 ENE 9 15 30.37 1028 5 8 0.09 2.29
3:52 pm 15:52 Cloudy with Light Rain 39 3.9 34 1.1 82 82 ENE 13 20 30.35 1028 4 6 0.04 1.02
4:52 pm 16:52 Cloudy with Light Rain 39 3.9 34 1.1 82 82 NE 14 22 30.34 1027 9 14 0.02 0.51
5:13 pm 17:13 Cloudy with Light Rain 38 3.3 34 1.1 86 86 NE 13 20 30.36 1028 8 13 0.00 0.00
5:17 pm 17:17 Cloudy with Light Rain 38 3.3 34 1.1 86 86 NNE 15 24 30.36 1028 7 11 0.00 0.00
5:52 pm 17:52 Cloudy with Light Rain 37 2.8 33 0.6 86 86 NE 14 22 30.35 1028 5 8 0.01 0.25
6:52 pm 18:52 Cloudy with Light Rain 36 2.2 33 0.6 89 89 ENE 15 24 30.32 1027 6 10 0.02 0.51
7:35 pm 19:35 Cloudy 36 2.2 32 0 86 86 ENE 15 24 30.36 1028 9 14 0.00 0.00
7:52 pm 19:52 Cloudy 36 2.2 32 0 86 86 ENE 13 20 30.32 1027 10 16 0.00 0.00
8:52 pm 20:52 Cloudy 36 2.2 32 0 86 86 N 14 22 30.40 1030 10 16 0.00 0.00
9:23 pm 21:23 Cloudy with Light Snow 35 1.7 32 0 89 89 N 17 28 30.44 1031 2 3 0.00 0.00
9:52 pm 21:52 Cloudy with Light Rain 35 1.7 32 0 89 89 NE 17 28 30.40 1029 4 6 0.00 0.00
10:52 pm 22:52 Cloudy 35 1.7 32 0 89 89 NNE 14 22 30.40 1030 10 16 0.00 0.00
11:52 pm 23:52 Cloudy 35 1.7 31 -0.6 85 85 NE 13 20 30.39 1029 9 14 0.00 0.00

Powered by AerisWeather